Location: Albany
(35.0170°S, 117.8920°E)
Time: 03:01:23
(UTC+08:00)

Vanguard 1 - Pass Details

Date: 25 January 2021
Orbit: 649 x 3833 km, 34.2° (Epoch: 26 February)

Event Time Altitude Azimuth Distance (km) Brightness Sun altitude
Rises 09:01:21 0° 283° (WNW) 3,693 12.6 43.3°
Reaches altitude 10° 09:06:11 10° 316° (NW) 3,279 12.6 44.3°
Maximum altitude 09:08:32 11° 334° (NNW) 3,449 12.8 44.8°
Drops below altitude 10° 09:11:14 10° 350° (N) 3,881 13.2 45.3°
Sets 09:19:06 0° 18° (NNE) 5,794 14.3 46.9°
